Location: ??????
(41.3794°N, 22.5014°E)
Time: 22:12:09
(UTC+00:00)

BREEZE-M DEB (TANK) - Pass Details

Date: 30 November 2020
Orbit: 432 x 13851 km, 45.9° (Epoch: 18 January)

Event Time Altitude Azimuth Distance (km) Brightness Sun altitude
Rises 15:26:49 0° 212° (SSW) 4,962 8.2 -5.1°
Reaches altitude 10° 15:31:55 10° 196° (SSW) 2,738 6.5 -5.9°
Maximum altitude 15:35:37 18° 153° (SSE) 1,532 4.6 -6.6°
Drops below altitude 10° 15:38:00 10° 105° (ESE) 1,671 4.3 -7.0°
Enters shadow 15:38:45 - 95° (E) 1,888 4.5 -7.1°
